Location: L��paisse
(47.2985°N, 0.1344°E)
Time: 10:52:22
(UTC+00:00)

Daily predictions for brighter satellites

Satellite Brightness Start Highest point End
(mag) Time Altitude Azimuth Time Altitude Azimuth Time Altitude Azimuth
Cosmos 1697 Rocket 2.9 20:10:32 10° NNW 20:16:10 62° ENE 20:21:46 10° SE
Cosmos 1633 4.2 20:14:14 10° SE 20:16:46 18° E 20:19:18 10° NE
ISS -2.3 20:17:13 10° WNW 20:20:25 37° N 20:23:36 10° ENE
ERS-2 2.1 20:16:48 10° NNE 20:20:27 68° ESE 20:24:03 10° S
Helios 1A Rocket 4.3 20:16:56 10° SSW 20:20:42 38° W 20:24:31 10° NNW
Cosmos 2221 2.9 20:19:41 10° N 20:23:52 49° ENE 20:28:02 10° SSE
Cosmos 2082 Rocket 3.0 20:19:59 10° SSE 20:24:47 30° ESE 20:29:38 10° NE
USA 307 4.3 20:25:04 10° WNW 20:28:48 30° SW 20:32:31 10° SSE
Cosmos 1833 Rocket 2.7 20:23:19 10° SSW 20:28:52 63° ESE 20:34:26 10° NNE
Cosmos 2279 Rocket 4.0 20:24:36 10° N 20:30:51 83° E 20:37:03 10° S
Gblst 52 Del rocket 4.4 20:26:06 10° WSW 20:31:51 85° SSE 20:38:22 10° ENE
Gbstr 26 Del rocket 3.9 20:28:21 10° WNW 20:31:55 41° N 20:35:39 10° ENE
Terra 3.5 20:29:50 10° ESE 20:33:12 20° ENE 20:36:35 10° NNE
SPOT 3 Rocket 3.6 20:28:00 10° SSE 20:33:13 74° ENE 20:38:27 10° N
Cosmos 1242 Rocket 2.7 20:29:35 10° NNW 20:33:14 76° W 20:36:47 10° S
BREEZE-M DEB (TANK) 3.8 20:30:29 10° SSW 20:33:49 36° SE 20:43:18 10° ENE
NOSS 3-4 (A) 3.4 20:31:44 10° SW 20:37:34 90° ESE 20:43:53 10° NE
NOSS 3-4 (C) 3.4 20:31:51 10° SW 20:37:40 89° SE 20:43:59 10° NE
Cosmos 773 Rocket 4.3 20:34:00 10° S 20:38:57 45° ESE 20:43:53 10° NNE
USA 276 2.9 20:36:38 10° W 20:39:45 54° N 20:42:51 10° ENE
Cosmos 1953 Rocket 4.3 20:38:40 10° SSW 20:43:05 57° WNW 20:47:31 10° N
IGS 5A 3.7 20:39:44 10° S 20:43:52 69° W 20:48:02 10° NNW
ATLAS 2AS CENTAUR R/B 3.0 20:38:49 10° SSW 20:46:36 65° ESE 20:54:15 10° NE
Cosmos 1606 2.7 20:44:03 10° N 20:47:48 61° E 20:51:16 12° SSE
Cosmos 2369 3.7 20:44:42 10° NNW 20:50:24 80° ENE 20:55:33 13° SSE
COSMOS 2406 3.2 20:45:14 10° SSW 20:50:54 83° ESE 20:56:39 10° NNE
ERBS 2.2 20:49:07 10° NW 20:52:21 72° NE 20:54:49 16° ESE
Landsat 7 4.3 20:53:38 10° S 20:58:19 60° W 21:03:03 10° NNW
Cosmos 2151 3.7 20:57:41 14° SSE 21:00:47 34° E 21:04:39 10° NNE
Nadezhda 4 Rocket 4.0 20:55:57 10° S 21:02:01 66° E 21:08:11 10° NNE
Cosmos 1980 Rocket 2.2 20:56:34 10° NNW 21:02:12 73° ENE 21:06:48 16° SE
GP-B 3.9 20:58:10 10° NNE 21:02:14 34° E 21:05:05 17° SE
Cosmos 1842 Rocket 3.9 20:58:36 10° NNW 21:03:04 70° W 21:07:31 10° S
USA 267 3.7 20:57:22 10° ENE 21:03:18 36° SE 21:09:13 10° SSW
ERS-1 Rocket 3.4 21:00:53 15° SE 21:04:50 49° ENE 21:09:41 10° N
ATLAS 3B R/B 3.0 20:57:49 10° NW 21:04:51 66° NE 21:11:03 15° SE
Spot 2 Rocket 3.6 21:01:00 13° SSE 21:05:28 71° ENE 21:10:35 10° N
Cosmos 2058 3.8 21:04:30 10° SSW 21:08:34 50° WNW 21:12:41 10° N
Cosmos 2322 Rocket 3.8 21:04:37 10° N 21:09:11 24° NE 21:13:41 10° E
Cosmos 1825 4.3 21:11:05 10° SW 21:14:18 27° WNW 21:17:34 10° NNW
Cosmos 1151 Rocket 4.5 21:11:36 10° NNE 21:15:09 24° ENE 21:17:20 17° ESE
Cosmos 1076 Rocket 3.5 21:13:11 10° S 21:17:30 89° ESE 21:21:53 10° N
BREEZE-M DEB (TANK) 1.6 21:15:13 10° WSW 21:17:59 82° NNW 21:19:23 15° ENE
Cosmos 1538 Rocket 4.2 21:13:19 10° S 21:18:21 50° ESE 21:23:23 10° NNE
Resurs 01 Rocket 3.3 21:17:43 10° SSW 21:21:38 30° W 21:25:34 10° NNW
Cosmos 158 Rocket 4.5 21:19:19 16° SSE 21:22:53 40° ESE 21:27:45 10° NE
Cosmos 2098 Rocket 2.4 21:21:48 13° SSW 21:24:17 68° W 21:27:32 10° N
SPOT 1/Viking Rocket 4.3 21:26:35 10° S 21:31:34 48° W 21:36:38 10° NNW
H-2A R/B 4.5 21:29:14 10° NE 21:32:54 29° E 21:34:07 25° SE
SL-16 R/B 3.0 21:29:05 10° NNW 21:34:28 42° NE 21:38:08 19° ESE
RESURS DK-1 2.4 21:33:34 10° SSW 21:37:43 84° WNW 21:41:55 10° NNE
USA 234 3.7 21:31:46 10° ESE 21:38:10 59° NNE 21:44:35 10° NW
Cosmos 1271 Rocket 2.9 21:37:00 10° N 21:40:57 62° ENE 21:42:41 31° SSE
Cosmos 44 Rocket 3.9 21:37:22 10° SW 21:42:32 64° NW 21:47:45 10° NNE
ARIANE 5 R/B 3.2 21:45:55 19° S 21:48:57 53° W 21:53:22 10° NNW
SPOT 5 2.8 21:46:28 23° S 21:49:02 66° WSW 21:53:22 10° NNW
Cosmos 304 Rocket 3.8 21:45:45 10° NNW 21:50:34 75° ENE 21:52:54 30° SSE
Cosmos 1633 4.3 21:48:02 10° SW 21:51:17 31° WNW 21:54:34 10° N
Cosmos 1933 3.4 21:47:30 10° NNW 21:51:34 73° W 21:53:36 28° S
Meteor 1-26 Rocket 4.3 21:47:41 10° N 21:53:45 88° E 21:57:21 25° S
BREEZE-M DEB (TANK) 4.3 21:52:45 10° WNW 21:56:39 58° SSW 22:04:29 20° SE
ISS -3.6 21:54:12 10° WNW 21:57:34 69° NNE 21:58:48 36° E
Cosmos 923 Rocket 4.1 22:02:24 28° S 22:05:07 57° ESE 22:10:22 10° NNE
Cosmos 371 Rocket 4.0 22:02:05 10° NNW 22:06:40 45° WSW 22:09:09 24° SSW
Cosmos 2278 4.4 22:02:04 10° NW 22:07:27 46° WSW 22:10:39 23° S
Cosmos 2082 Rocket 3.1 22:03:12 10° SW 22:08:38 49° NW 22:14:08 10° NNE
Terra 2.1 22:08:03 27° S 22:10:31 60° W 22:15:15 10° NNW
USA 276 2.5 22:13:04 10° WNW 22:16:12 60° NNE 22:17:00 42° ENE
Cosmos 2056 Rocket 4.1 22:11:48 10° NNW 22:17:02 48° ENE 22:19:23 29° ESE
Cosmos 2333 Rocket 3.9 22:13:07 10° N 22:17:43 25° NE 22:21:43 12° E
Cosmos 1515 Rocket 4.2 22:13:36 10° N 22:17:53 44° ENE 22:19:04 35° ESE
ATLAS 5 CENTAUR R/B 4.5 22:14:23 10° NNW 22:17:55 18° NNE 22:21:49 10° ENE
Gbstr 26 Del rocket 2.9 22:15:14 10° WNW 22:19:02 73° NNE 22:20:51 32° E
Cosmos 2360 Rocket 2.8 22:19:36 10° NNW 22:25:02 46° NE 22:27:47 27° ESE
Cosmos 1862 3.4 22:25:14 51° SE 22:25:50 57° E 22:29:45 10° NNE
ALOS 2 4.1 22:26:42 22° E 22:28:04 26° ENE 22:31:43 10° N
Cosmos 1766 Rocket 3.6 22:27:29 36° SSW 22:29:16 76° W 22:33:40 10° N
Cosmos 1809 Rocket 4.5 22:28:49 26° SSW 22:32:29 84° W 22:38:40 10° N
Cosmos 1812 2.6 22:29:42 10° N 22:33:36 83° W 22:34:14 60° S
Cosmos 1782 3.8 22:31:24 10° NNW 22:35:11 39° W 22:36:29 30° SW
ATLAS 2AS CENTAUR R/B 4.1 22:30:32 10° WSW 22:38:01 44° NW 22:45:17 10° NE
Cosmos 1371 Rocket 4.1 22:32:39 10° NNW 22:38:03 76° ENE 22:39:57 41° SE
Cosmos 2112 Rocket 3.9 22:37:57 38° S 22:39:59 73° ESE 22:45:17 10° NNE
Cosmos 1328 Rocket 3.8 22:37:14 10° NNW 22:41:38 61° W 22:42:54 42° SSW
Cosmos 1680 Rocket 3.4 22:39:43 33° SSW 22:42:09 87° ESE 22:47:27 10° NNE
SL-27 R/B 3.7 22:43:09 31° ENE 22:43:09 31° ENE 22:45:40 10° NE
Cosmos 1980 Rocket 4.1 22:41:45 10° WNW 22:45:35 19° W 22:48:34 13° SW
USA 267 3.3 22:40:08 10° NE 22:46:42 80° NNW 22:53:15 10° WSW
Cosmos 1151 Rocket 4.2 22:48:50 10° NNW 22:52:48 35° W 22:54:11 28° SW
Cosmos 2322 Rocket 2.2 22:48:09 10° NNW 22:53:47 71° WSW 22:55:35 43° S
ATLAS 3B R/B 3.8 22:48:57 10° NW 22:55:14 34° WSW 22:58:17 25° SSW
Meteor 2-21 Rocket 4.5 22:55:40 34° SSW 22:58:35 82° W 23:04:49 10° N
Cosmos 2315 Rocket 4.2 22:54:23 10° N 23:00:39 64° ENE 23:03:02 39° SE
NOSS 2-1 (C) 4.4 23:02:14 27° ENE 23:02:14 27° ENE 23:04:01 10° NE
Meteor 2-6 Rocket 4.5 22:56:48 10° NNW 23:02:08 56° W 23:04:00 37° SSW
Cosmos 1805 Rocket 4.3 23:02:35 38° E 23:02:50 39° E 23:06:58 10° NNE
NOSS 2-1 (D) 4.1 23:09:40 33° ENE 23:09:40 33° ENE 23:11:43 10° NE
Cosmos 2237 4.3 23:07:13 10° NNW 23:12:52 66° WSW 23:14:27 46° S
Meteor 1-27 Rocket 3.6 23:07:59 10° N 23:13:38 87° E 23:15:18 48° SSE
Cosmos 1500 Rocket 3.4 23:14:13 68° S 23:14:47 90° ESE 23:19:14 10° N
COSMOS 2428 3.7 23:10:06 10° NNW 23:15:29 40° NE 23:18:23 24° ESE
Cosmos 2333 4.4 23:10:13 10° NNW 23:15:48 64° ENE 23:17:46 39° SE
SL-16 R/B 3.1 23:13:22 10° NW 23:18:29 36° WSW 23:19:59 31° SW
Cosmos 1624 Rocket 4.3 23:15:09 10° NNW 23:20:13 54° WSW 23:21:19 45° SSW
Cosmos 1655 Rocket 4.2 23:18:09 34° SSW 23:21:04 68° W 23:27:28 10° N
USA 234 3.3 23:19:00 41° SSE 23:21:12 59° SW 23:27:40 10° WNW
Cosmos 2219 Rocket 2.7 23:16:45 10° NNW 23:22:14 52° ENE 23:24:30 32° ESE
Cosmos 292 Rocket 3.6 23:17:28 10° NNW 23:22:16 85° WSW 23:23:00 64° S
Spot 4 4.2 23:25:02 46° SW 23:25:55 54° W 23:30:40 10° NNW
Cosmos 2266 Rocket 4.1 23:23:51 37° SSW 23:26:22 69° W 23:32:33 10° N
Cosmos 2228 Rocket 2.9 23:25:19 10° N 23:29:44 84° W 23:30:09 73° SSW
Thor Agena Rocket 4.3 23:27:51 10° NNE 23:32:28 35° E 23:32:59 34° ESE
Cosmos 1743 Rocket 3.8 23:32:04 52° SW 23:32:50 62° WNW 23:37:16 10° N
ISS -1.1 23:31:20 10° W 23:31:45 12° W 23:31:45 12° W
Cosmos 1420 Rocket 4.2 23:30:16 10° NNW 23:35:31 61° WSW 23:36:32 51° SSW
COSMOS 2455 3.1 23:35:08 44° SE 23:36:05 48° ESE 23:41:50 10° NE
Nimbus 7 Rocket 4.5 23:32:35 10° NNE 23:38:36 65° ESE 23:40:14 47° SSE
Cosmos 1515 3.8 23:42:00 10° N 23:45:31 68° NE 23:45:31 68° NE
Meteor 1-20 Rocket 4.1 23:47:32 54° S 23:48:50 80° E 23:54:30 10° NNE
Cosmos 1666 Rocket 3.8 23:49:24 53° ESE 23:49:33 53° E 23:53:52 10° NNE
Cosmos 1633 Rocket 3.6 23:49:55 44° E 23:50:02 44° E 23:54:12 10° NNE
Cosmos 1452 Rocket 3.4 23:44:50 10° NNW 23:50:07 86° WSW 23:51:09 59° SSE
Cosmos 972 Rocket 4.0 23:51:10 52° SSW 23:52:34 86° WNW 23:57:45 10° NNE
Sich 1 2.9 23:54:53 73° SW 23:55:12 79° W 23:59:36 10° N
